Year,Month,Day,Hour,Minute,Value (Times are PST for temperature in C)
2009,08,27,00,00,13.50
2009,08,27,00,01,13.50
2009,08,27,00,02,13.50
2009,08,27,00,03,13.50
2009,08,27,00,04,13.60
2009,08,27,00,05,13.60
2009,08,27,00,06,13.60
2009,08,27,00,07,13.60
2009,08,27,00,08,13.60
2009,08,27,00,09,13.60
2009,08,27,00,10,13.60
2009,08,27,00,11,13.60
2009,08,27,00,12,13.60
2009,08,27,00,13,13.60
2009,08,27,00,14,13.60
2009,08,27,00,15,13.60
2009,08,27,00,16,13.60
2009,08,27,00,17,13.60
2009,08,27,00,18,13.60
2009,08,27,00,19,13.60
2009,08,27,00,20,13.60
2009,08,27,00,21,13.60
2009,08,27,00,22,13.60
2009,08,27,00,23,13.60
2009,08,27,00,24,13.60
2009,08,27,00,25,13.50
2009,08,27,00,26,13.50
2009,08,27,00,27,13.50
2009,08,27,00,28,13.50
2009,08,27,00,29,13.50
2009,08,27,00,30,13.50
2009,08,27,00,31,13.50
2009,08,27,00,32,13.40
2009,08,27,00,33,13.40
2009,08,27,00,34,13.40
2009,08,27,00,35,13.40
2009,08,27,00,36,13.40
2009,08,27,00,37,13.30
2009,08,27,00,38,13.30
2009,08,27,00,39,13.30
2009,08,27,00,40,13.30
2009,08,27,00,41,13.30
2009,08,27,00,42,13.30
2009,08,27,00,43,13.30
2009,08,27,00,44,13.30
2009,08,27,00,45,13.30
2009,08,27,00,46,13.30
2009,08,27,00,47,13.30
2009,08,27,00,48,13.30
2009,08,27,00,49,13.30
2009,08,27,00,50,13.30
2009,08,27,00,51,13.20
2009,08,27,00,52,13.20
2009,08,27,00,53,13.20
2009,08,27,00,54,13.20
2009,08,27,00,55,13.20
2009,08,27,00,56,13.10
2009,08,27,00,57,13.10
2009,08,27,00,58,13.10
2009,08,27,00,59,13.10
2009,08,27,01,00,13.10
2009,08,27,01,01,13.10
2009,08,27,01,02,13.00
2009,08,27,01,03,13.00
2009,08,27,01,04,13.00
2009,08,27,01,05,13.00
2009,08,27,01,06,13.00
2009,08,27,01,07,12.90
2009,08,27,01,08,12.90
2009,08,27,01,09,12.90
2009,08,27,01,10,12.90
2009,08,27,01,11,12.90
2009,08,27,01,12,12.90
2009,08,27,01,13,12.80
2009,08,27,01,14,12.80
2009,08,27,01,15,12.80
2009,08,27,01,16,12.80
2009,08,27,01,17,12.80
2009,08,27,01,18,12.80
2009,08,27,01,19,12.80
2009,08,27,01,20,12.90
2009,08,27,01,21,12.90
2009,08,27,01,22,12.90
2009,08,27,01,23,12.90
2009,08,27,01,24,12.90
2009,08,27,01,25,12.90
2009,08,27,01,26,12.90
2009,08,27,01,27,12.90
2009,08,27,01,28,12.80
2009,08,27,01,29,12.80
2009,08,27,01,30,12.80
2009,08,27,01,31,12.80
2009,08,27,01,32,12.80
2009,08,27,01,33,12.80
2009,08,27,01,34,12.80
2009,08,27,01,35,12.80
2009,08,27,01,36,12.80
2009,08,27,01,37,12.80
2009,08,27,01,38,12.80
2009,08,27,01,39,12.80
2009,08,27,01,40,12.80
2009,08,27,01,41,12.80
2009,08,27,01,42,12.80
2009,08,27,01,43,12.80
2009,08,27,01,44,12.80
2009,08,27,01,45,12.80
2009,08,27,01,46,12.80
2009,08,27,01,47,12.80
2009,08,27,01,48,12.80
2009,08,27,01,49,12.80
2009,08,27,01,50,12.80
2009,08,27,01,51,12.80
2009,08,27,01,52,12.80
2009,08,27,01,53,12.80
2009,08,27,01,54,12.80
2009,08,27,01,55,12.80
2009,08,27,01,56,12.80
2009,08,27,01,57,12.80
2009,08,27,01,58,12.80
2009,08,27,01,59,12.80
2009,08,27,02,00,12.80
2009,08,27,02,01,12.80
2009,08,27,02,02,12.80
2009,08,27,02,03,12.80
2009,08,27,02,04,12.70
2009,08,27,02,05,12.70
2009,08,27,02,06,12.70
2009,08,27,02,07,12.70
2009,08,27,02,08,12.80
2009,08,27,02,09,12.80
2009,08,27,02,10,12.80
2009,08,27,02,11,12.80
2009,08,27,02,12,12.80
2009,08,27,02,13,12.80
2009,08,27,02,14,12.80
2009,08,27,02,15,12.80
2009,08,27,02,16,12.80
2009,08,27,02,17,12.80
2009,08,27,02,18,12.80
2009,08,27,02,19,12.80
2009,08,27,02,20,12.80
2009,08,27,02,21,12.80
2009,08,27,02,22,12.80
2009,08,27,02,23,12.80
2009,08,27,02,24,12.80
2009,08,27,02,25,12.80
2009,08,27,02,26,12.80
2009,08,27,02,27,12.80
2009,08,27,02,28,12.80
2009,08,27,02,29,12.80
2009,08,27,02,30,12.80
2009,08,27,02,31,12.80
2009,08,27,02,32,12.80
2009,08,27,02,33,12.80
2009,08,27,02,34,12.80
2009,08,27,02,35,12.80
2009,08,27,02,36,12.80
2009,08,27,02,37,12.80
2009,08,27,02,38,12.80
2009,08,27,02,39,12.80
2009,08,27,02,40,12.80
2009,08,27,02,41,12.80
2009,08,27,02,42,12.80
2009,08,27,02,43,12.80
2009,08,27,02,44,12.80
2009,08,27,02,45,12.80
2009,08,27,02,46,12.80
2009,08,27,02,47,12.80
2009,08,27,02,48,12.80
2009,08,27,02,49,12.80
2009,08,27,02,50,12.80
2009,08,27,02,51,12.80
2009,08,27,02,52,12.80
2009,08,27,02,53,12.80
2009,08,27,02,54,12.80
2009,08,27,02,55,12.80
2009,08,27,02,56,12.80
2009,08,27,02,57,12.80
2009,08,27,02,58,12.80
2009,08,27,02,59,12.80
2009,08,27,03,00,12.80
2009,08,27,03,01,12.80
2009,08,27,03,02,12.80
2009,08,27,03,03,12.80
2009,08,27,03,04,12.80
2009,08,27,03,05,12.80
2009,08,27,03,06,12.80
2009,08,27,03,07,12.80
2009,08,27,03,08,12.80
2009,08,27,03,09,12.80
2009,08,27,03,10,12.80
2009,08,27,03,11,12.70
2009,08,27,03,12,12.80
2009,08,27,03,13,12.80
2009,08,27,03,14,12.80
2009,08,27,03,15,12.70
2009,08,27,03,16,12.70
2009,08,27,03,17,12.70
2009,08,27,03,18,12.70
2009,08,27,03,19,12.70
2009,08,27,03,20,12.70
2009,08,27,03,21,12.60
2009,08,27,03,22,12.60
2009,08,27,03,23,12.60
2009,08,27,03,24,12.60
2009,08,27,03,25,12.60
2009,08,27,03,26,12.60
2009,08,27,03,27,12.60
2009,08,27,03,28,12.70
2009,08,27,03,29,12.70
2009,08,27,03,30,12.70
2009,08,27,03,31,12.70
2009,08,27,03,32,12.70
2009,08,27,03,33,12.70
2009,08,27,03,34,12.70
2009,08,27,03,35,12.70
2009,08,27,03,36,12.70
2009,08,27,03,37,12.70
2009,08,27,03,38,12.70
2009,08,27,03,39,12.70
2009,08,27,03,40,12.60
2009,08,27,03,41,12.60
2009,08,27,03,42,12.60
2009,08,27,03,43,12.50
2009,08,27,03,44,12.50
2009,08,27,03,45,12.50
2009,08,27,03,46,12.50
2009,08,27,03,47,12.40
2009,08,27,03,48,12.40
2009,08,27,03,49,12.40
2009,08,27,03,50,12.40
2009,08,27,03,51,12.30
2009,08,27,03,52,12.30
2009,08,27,03,53,12.30
2009,08,27,03,54,12.30
2009,08,27,03,55,12.30
2009,08,27,03,56,12.30
2009,08,27,03,57,12.30
2009,08,27,03,58,12.30
2009,08,27,03,59,12.20
2009,08,27,04,00,12.20
2009,08,27,04,01,12.20
2009,08,27,04,02,12.20
2009,08,27,04,03,12.20
2009,08,27,04,04,12.10
2009,08,27,04,05,12.10
2009,08,27,04,06,12.10
2009,08,27,04,07,12.10
2009,08,27,04,08,12.10
2009,08,27,04,09,12.10
2009,08,27,04,10,12.10
2009,08,27,04,11,12.00
2009,08,27,04,12,12.00
2009,08,27,04,13,12.00
2009,08,27,04,14,12.00
2009,08,27,04,15,12.00
2009,08,27,04,16,12.00
2009,08,27,04,17,12.00
2009,08,27,04,18,12.00
2009,08,27,04,19,12.00
2009,08,27,04,20,11.90
2009,08,27,04,21,11.90
2009,08,27,04,22,11.90
2009,08,27,04,23,11.90
2009,08,27,04,24,11.90
2009,08,27,04,25,11.90
2009,08,27,04,26,11.90
2009,08,27,04,27,11.90
2009,08,27,04,28,11.90
2009,08,27,04,29,11.90
2009,08,27,04,30,11.90
2009,08,27,04,31,11.90
2009,08,27,04,32,11.90
2009,08,27,04,33,11.80
2009,08,27,04,34,11.80
2009,08,27,04,35,11.80
2009,08,27,04,36,11.80
2009,08,27,04,37,11.80
2009,08,27,04,38,11.80
2009,08,27,04,39,11.80
2009,08,27,04,40,11.80
2009,08,27,04,41,11.80
2009,08,27,04,42,11.80
2009,08,27,04,43,11.80
2009,08,27,04,44,11.80
2009,08,27,04,45,11.80
2009,08,27,04,46,11.80
2009,08,27,04,47,11.80
2009,08,27,04,48,11.80
2009,08,27,04,49,11.80
2009,08,27,04,50,11.80
2009,08,27,04,51,11.80
2009,08,27,04,52,11.90
2009,08,27,04,53,11.90
2009,08,27,04,54,12.00
2009,08,27,04,55,12.00
2009,08,27,04,56,12.00
2009,08,27,04,57,12.00
2009,08,27,04,58,12.00
2009,08,27,04,59,12.00
2009,08,27,05,00,12.00
2009,08,27,05,01,12.00
2009,08,27,05,02,12.10
2009,08,27,05,03,12.10
2009,08,27,05,04,12.10
2009,08,27,05,05,12.10
2009,08,27,05,06,12.10
2009,08,27,05,07,12.10
2009,08,27,05,08,12.10
2009,08,27,05,09,12.10
2009,08,27,05,10,12.10
2009,08,27,05,11,12.10
2009,08,27,05,12,12.10
2009,08,27,05,13,12.10
2009,08,27,05,14,12.20
2009,08,27,05,15,12.20
2009,08,27,05,16,12.20
2009,08,27,05,17,12.20
2009,08,27,05,18,12.20
2009,08,27,05,19,12.30
2009,08,27,05,20,12.30
2009,08,27,05,21,12.30
2009,08,27,05,22,12.30
2009,08,27,05,23,12.30
2009,08,27,05,24,12.40
2009,08,27,05,25,12.40
2009,08,27,05,26,12.30
2009,08,27,05,27,12.30
2009,08,27,05,28,12.30
2009,08,27,05,29,12.30
2009,08,27,05,30,12.30
2009,08,27,05,31,12.30
2009,08,27,05,32,12.30
2009,08,27,05,33,12.30
2009,08,27,05,34,12.30
2009,08,27,05,35,12.30
2009,08,27,05,36,12.30
2009,08,27,05,37,12.30
2009,08,27,05,38,12.30
2009,08,27,05,39,12.20
2009,08,27,05,40,12.20
2009,08,27,05,41,12.20
2009,08,27,05,42,12.10
2009,08,27,05,43,12.10
2009,08,27,05,44,12.10
2009,08,27,05,45,12.10
2009,08,27,05,46,12.10
2009,08,27,05,47,12.10
2009,08,27,05,48,12.00
2009,08,27,05,49,12.00
2009,08,27,05,50,12.00
2009,08,27,05,51,12.00
2009,08,27,05,52,11.90
2009,08,27,05,53,11.90
2009,08,27,05,54,11.90
2009,08,27,05,55,11.80
2009,08,27,05,56,11.80
2009,08,27,05,57,11.80
2009,08,27,05,58,11.80
2009,08,27,05,59,11.80
2009,08,27,06,00,11.70
2009,08,27,06,01,11.70
2009,08,27,06,02,11.70
2009,08,27,06,03,11.60
2009,08,27,06,04,11.60
2009,08,27,06,05,11.60
2009,08,27,06,06,11.60
2009,08,27,06,07,11.60
2009,08,27,06,08,11.60
2009,08,27,06,09,11.60
2009,08,27,06,10,11.60
2009,08,27,06,11,11.60
2009,08,27,06,12,11.60
2009,08,27,06,13,11.60
2009,08,27,06,14,11.60
2009,08,27,06,15,11.50
2009,08,27,06,16,11.40
2009,08,27,06,17,11.40
2009,08,27,06,18,11.40
2009,08,27,06,19,11.40
2009,08,27,06,20,11.40
2009,08,27,06,21,11.40
2009,08,27,06,22,11.40
2009,08,27,06,23,11.40
2009,08,27,06,24,11.40
2009,08,27,06,25,11.40
2009,08,27,06,26,11.50
2009,08,27,06,27,11.60
2009,08,27,06,28,11.60
2009,08,27,06,29,11.60
2009,08,27,06,30,11.60
2009,08,27,06,31,11.60
2009,08,27,06,32,11.60
2009,08,27,06,33,11.60
2009,08,27,06,34,11.60
2009,08,27,06,35,11.60
2009,08,27,06,36,11.60
2009,08,27,06,37,11.60
2009,08,27,06,38,11.60
2009,08,27,06,39,11.60
2009,08,27,06,40,11.60
2009,08,27,06,41,11.60
2009,08,27,06,42,11.60
2009,08,27,06,43,11.60
2009,08,27,06,44,11.60
2009,08,27,06,45,11.60
2009,08,27,06,46,11.60
2009,08,27,06,47,11.70
2009,08,27,06,48,11.70
2009,08,27,06,49,11.70
2009,08,27,06,50,11.70
2009,08,27,06,51,11.70
2009,08,27,06,52,11.70
2009,08,27,06,53,11.80
2009,08,27,06,54,11.80
2009,08,27,06,55,11.80
2009,08,27,06,56,11.80
2009,08,27,06,57,11.80
2009,08,27,06,58,11.80
2009,08,27,06,59,11.90
2009,08,27,07,00,11.90
2009,08,27,07,01,11.90
2009,08,27,07,02,12.00
2009,08,27,07,03,12.00
2009,08,27,07,04,12.00
2009,08,27,07,05,12.10
2009,08,27,07,06,12.20
2009,08,27,07,07,12.20
2009,08,27,07,08,12.30
2009,08,27,07,09,12.40
2009,08,27,07,10,12.50
2009,08,27,07,11,12.60
2009,08,27,07,12,12.70
2009,08,27,07,13,12.80
2009,08,27,07,14,12.80
2009,08,27,07,15,12.90
2009,08,27,07,16,12.90
2009,08,27,07,17,13.00
2009,08,27,07,18,13.00
2009,08,27,07,19,13.00
2009,08,27,07,20,13.10
2009,08,27,07,21,13.10
2009,08,27,07,22,13.10
2009,08,27,07,23,13.20
2009,08,27,07,24,13.20
2009,08,27,07,25,13.30
2009,08,27,07,26,13.30
2009,08,27,07,27,13.30
2009,08,27,07,28,13.30
2009,08,27,07,29,13.40
2009,08,27,07,30,13.40
2009,08,27,07,31,13.40
2009,08,27,07,32,13.50
2009,08,27,07,33,13.50
2009,08,27,07,34,13.50
2009,08,27,07,35,13.50
2009,08,27,07,36,13.50
2009,08,27,07,37,13.60
2009,08,27,07,38,13.60
2009,08,27,07,39,13.70
2009,08,27,07,40,13.70
2009,08,27,07,41,13.70
2009,08,27,07,42,13.70
2009,08,27,07,43,13.80
2009,08,27,07,44,13.80
2009,08,27,07,45,13.80
2009,08,27,07,46,13.80
2009,08,27,07,47,13.80
2009,08,27,07,48,13.80
2009,08,27,07,49,13.80
2009,08,27,07,50,13.80
2009,08,27,07,51,13.80
2009,08,27,07,52,13.80
2009,08,27,07,53,13.80
2009,08,27,07,54,13.90
2009,08,27,07,55,13.90
2009,08,27,07,56,13.90
2009,08,27,07,57,14.00
2009,08,27,07,58,14.00
2009,08,27,07,59,14.00
2009,08,27,08,00,14.00
2009,08,27,08,01,14.00
2009,08,27,08,02,14.00
2009,08,27,08,03,14.00
2009,08,27,08,04,14.10
2009,08,27,08,05,14.10
2009,08,27,08,06,14.10
2009,08,27,08,07,14.10
2009,08,27,08,08,14.10
2009,08,27,08,09,14.10
2009,08,27,08,10,14.20
2009,08,27,08,11,14.20
2009,08,27,08,12,14.20
2009,08,27,08,13,14.20
2009,08,27,08,14,14.20
2009,08,27,08,15,14.20
2009,08,27,08,16,14.20
2009,08,27,08,17,14.20
2009,08,27,08,18,14.20
2009,08,27,08,19,14.20
2009,08,27,08,20,14.30
2009,08,27,08,21,14.30
2009,08,27,08,22,14.30
2009,08,27,08,23,14.40
2009,08,27,08,24,14.40
2009,08,27,08,25,14.40
2009,08,27,08,26,14.50
2009,08,27,08,27,14.60
2009,08,27,08,28,14.60
2009,08,27,08,29,14.70
2009,08,27,08,30,14.80
2009,08,27,08,31,14.80
2009,08,27,08,32,14.90
2009,08,27,08,33,15.00
2009,08,27,08,34,15.10
2009,08,27,08,35,15.10
2009,08,27,08,36,15.20
2009,08,27,08,37,15.20
2009,08,27,08,38,15.30
2009,08,27,08,39,15.30
2009,08,27,08,40,15.50
2009,08,27,08,41,15.50
2009,08,27,08,42,15.60
2009,08,27,08,43,15.80
2009,08,27,08,44,15.80
2009,08,27,08,45,15.90
2009,08,27,08,46,16.00
2009,08,27,08,47,16.10
2009,08,27,08,48,16.20
2009,08,27,08,49,16.30
2009,08,27,08,50,16.30
2009,08,27,08,51,16.40
2009,08,27,08,52,16.40
2009,08,27,08,53,16.50
2009,08,27,08,54,16.60
2009,08,27,08,55,16.60
2009,08,27,08,56,16.70
2009,08,27,08,57,16.70
2009,08,27,08,58,16.80
2009,08,27,08,59,16.80
2009,08,27,09,00,16.90
2009,08,27,09,01,16.90
2009,08,27,09,02,17.00
2009,08,27,09,03,17.00
2009,08,27,09,04,17.00
2009,08,27,09,05,17.10
2009,08,27,09,06,17.20
2009,08,27,09,07,17.30
2009,08,27,09,08,17.30
2009,08,27,09,09,17.40
2009,08,27,09,10,17.40
2009,08,27,09,11,17.50
2009,08,27,09,12,17.50
2009,08,27,09,13,17.50
2009,08,27,09,14,17.60
2009,08,27,09,15,17.60
2009,08,27,09,16,17.70
2009,08,27,09,17,17.70
2009,08,27,09,18,17.80
2009,08,27,09,19,17.80
2009,08,27,09,20,17.80
2009,08,27,09,21,17.90
2009,08,27,09,22,17.90
2009,08,27,09,23,17.90
2009,08,27,09,24,17.90
2009,08,27,09,25,17.90
2009,08,27,09,26,17.90
2009,08,27,09,27,18.00
2009,08,27,09,28,18.10
2009,08,27,09,29,18.10
2009,08,27,09,30,18.10
2009,08,27,09,31,18.20
2009,08,27,09,32,18.20
2009,08,27,09,33,18.20
2009,08,27,09,34,18.20
2009,08,27,09,35,18.20
2009,08,27,09,36,18.20
2009,08,27,09,37,18.20
2009,08,27,09,38,18.20
2009,08,27,09,39,18.30
2009,08,27,09,40,18.30
2009,08,27,09,41,18.40
2009,08,27,09,42,18.40
2009,08,27,09,43,18.50
2009,08,27,09,44,18.60
2009,08,27,09,45,18.70
2009,08,27,09,46,18.70
2009,08,27,09,47,18.80
2009,08,27,09,48,18.80
2009,08,27,09,49,18.90
2009,08,27,09,50,18.90
2009,08,27,09,51,18.90
2009,08,27,09,52,18.90
2009,08,27,09,53,18.90
2009,08,27,09,54,18.90
2009,08,27,09,55,19.00
2009,08,27,09,56,19.10
2009,08,27,09,57,19.10
2009,08,27,09,58,19.10
2009,08,27,09,59,19.10
2009,08,27,10,00,19.20
2009,08,27,10,01,19.10
2009,08,27,10,02,19.10
2009,08,27,10,03,19.10
2009,08,27,10,04,19.10
2009,08,27,10,05,19.10
2009,08,27,10,06,19.10
2009,08,27,10,07,19.20
2009,08,27,10,08,19.20
2009,08,27,10,09,19.20
2009,08,27,10,10,19.20
2009,08,27,10,11,19.20
2009,08,27,10,12,19.20
2009,08,27,10,13,19.30
2009,08,27,10,14,19.30
2009,08,27,10,15,19.30
2009,08,27,10,16,19.30
2009,08,27,10,17,19.40
2009,08,27,10,18,19.30
2009,08,27,10,19,19.30
2009,08,27,10,20,19.40
2009,08,27,10,21,19.40
2009,08,27,10,22,19.30
2009,08,27,10,23,19.30
2009,08,27,10,24,19.40
2009,08,27,10,25,19.40
2009,08,27,10,26,19.40
2009,08,27,10,27,19.50
2009,08,27,10,28,19.50
2009,08,27,10,29,19.50
2009,08,27,10,30,19.50
2009,08,27,10,31,19.50
2009,08,27,10,32,19.50
2009,08,27,10,33,19.50
2009,08,27,10,34,19.50
2009,08,27,10,35,19.60
2009,08,27,10,36,19.50
2009,08,27,10,37,19.50
2009,08,27,10,38,19.50
2009,08,27,10,39,19.50
2009,08,27,10,40,19.60
2009,08,27,10,41,19.60
2009,08,27,10,42,19.60
2009,08,27,10,43,19.50
2009,08,27,10,44,19.50
2009,08,27,10,45,19.50
2009,08,27,10,46,19.60
2009,08,27,10,47,19.60
2009,08,27,10,48,19.50
2009,08,27,10,49,19.50
2009,08,27,10,50,19.50
2009,08,27,10,51,19.50
2009,08,27,10,52,19.50
2009,08,27,10,53,19.60
2009,08,27,10,54,19.60
2009,08,27,10,55,19.70
2009,08,27,10,56,19.70
2009,08,27,10,57,19.60
2009,08,27,10,58,19.50
2009,08,27,10,59,19.50
2009,08,27,11,00,19.40
2009,08,27,11,01,19.40
2009,08,27,11,02,19.50
2009,08,27,11,03,19.50
2009,08,27,11,04,19.50
2009,08,27,11,05,19.50
2009,08,27,11,06,19.60
2009,08,27,11,07,19.60
2009,08,27,11,08,19.60
2009,08,27,11,09,19.60
2009,08,27,11,10,19.70
2009,08,27,11,11,19.70
2009,08,27,11,12,19.70
2009,08,27,11,13,19.80
2009,08,27,11,14,19.80
2009,08,27,11,15,19.90
2009,08,27,11,16,19.90
2009,08,27,11,17,19.90
2009,08,27,11,18,19.90
2009,08,27,11,19,19.90
2009,08,27,11,20,19.90
2009,08,27,11,21,19.90
2009,08,27,11,22,19.90
2009,08,27,11,23,20.00
2009,08,27,11,24,20.10
2009,08,27,11,25,20.10
2009,08,27,11,26,20.20
2009,08,27,11,27,20.20
2009,08,27,11,28,20.20
2009,08,27,11,29,20.30
2009,08,27,11,30,20.30
2009,08,27,11,31,20.40
2009,08,27,11,32,20.40
2009,08,27,11,33,20.40
2009,08,27,11,34,20.40
2009,08,27,11,35,20.50
2009,08,27,11,36,20.50
2009,08,27,11,37,20.50
2009,08,27,11,38,20.50
2009,08,27,11,39,20.50
2009,08,27,11,40,20.50
2009,08,27,11,41,20.50
2009,08,27,11,42,20.50
2009,08,27,11,43,20.60
2009,08,27,11,44,20.60
2009,08,27,11,45,20.60
2009,08,27,11,46,20.60
2009,08,27,11,47,20.60
2009,08,27,11,48,20.70
2009,08,27,11,49,20.80
2009,08,27,11,50,20.80
2009,08,27,11,51,20.80
2009,08,27,11,52,20.90
2009,08,27,11,53,20.90
2009,08,27,11,54,20.90
2009,08,27,11,55,20.90
2009,08,27,11,56,20.90
2009,08,27,11,57,20.90
2009,08,27,11,58,20.90
2009,08,27,11,59,20.90
2009,08,27,12,00,21.00
2009,08,27,12,01,21.00
2009,08,27,12,02,21.00
2009,08,27,12,03,21.10
2009,08,27,12,04,21.00
2009,08,27,12,05,21.00
2009,08,27,12,06,21.10
2009,08,27,12,07,21.10
2009,08,27,12,08,21.10
2009,08,27,12,09,21.20
2009,08,27,12,10,21.30
2009,08,27,12,11,21.20
2009,08,27,12,12,21.20
2009,08,27,12,13,21.20
2009,08,27,12,14,21.10
2009,08,27,12,15,21.10
2009,08,27,12,16,21.00
2009,08,27,12,17,20.90
2009,08,27,12,18,20.90
2009,08,27,12,19,20.90
2009,08,27,12,20,20.90
2009,08,27,12,21,20.80
2009,08,27,12,22,20.80
2009,08,27,12,23,20.80
2009,08,27,12,24,20.90
2009,08,27,12,25,20.90
2009,08,27,12,26,21.00
2009,08,27,12,27,21.10
2009,08,27,12,28,21.20
2009,08,27,12,29,21.20
2009,08,27,12,30,21.20
2009,08,27,12,31,21.20
2009,08,27,12,32,21.20
2009,08,27,12,33,21.20
2009,08,27,12,34,21.30
2009,08,27,12,35,21.30
2009,08,27,12,36,21.30
2009,08,27,12,37,21.40
2009,08,27,12,38,21.50
2009,08,27,12,39,21.60
2009,08,27,12,40,21.60
2009,08,27,12,41,21.60
2009,08,27,12,42,21.70
2009,08,27,12,43,21.70
2009,08,27,12,44,21.70
2009,08,27,12,45,21.80
2009,08,27,12,46,21.80
2009,08,27,12,47,21.90
2009,08,27,12,48,22.00
2009,08,27,12,49,22.00
2009,08,27,12,50,22.00
2009,08,27,12,51,22.10
2009,08,27,12,52,22.00
2009,08,27,12,53,22.00
2009,08,27,12,54,22.00
2009,08,27,12,55,21.90
2009,08,27,12,56,21.80
2009,08,27,12,57,21.80
2009,08,27,12,58,21.70
2009,08,27,12,59,21.80
2009,08,27,13,00,21.80
2009,08,27,13,01,21.90
2009,08,27,13,02,22.00
2009,08,27,13,03,22.00
2009,08,27,13,04,22.10
2009,08,27,13,05,22.10
2009,08,27,13,06,22.10
2009,08,27,13,07,22.10
2009,08,27,13,08,22.10
2009,08,27,13,09,22.10
2009,08,27,13,10,22.10
2009,08,27,13,11,22.20
2009,08,27,13,12,22.20
2009,08,27,13,13,22.30
2009,08,27,13,14,22.30
2009,08,27,13,15,22.40
2009,08,27,13,16,22.50
2009,08,27,13,17,22.50
2009,08,27,13,18,22.50
2009,08,27,13,19,22.60
2009,08,27,13,20,22.60
2009,08,27,13,21,22.50
2009,08,27,13,22,22.50
2009,08,27,13,23,22.40
2009,08,27,13,24,22.30
2009,08,27,13,25,22.30
2009,08,27,13,26,22.20
2009,08,27,13,27,22.20
2009,08,27,13,28,22.20
2009,08,27,13,29,22.20
2009,08,27,13,30,22.20
2009,08,27,13,31,22.20
2009,08,27,13,32,22.20
2009,08,27,13,33,22.20
2009,08,27,13,34,22.20
2009,08,27,13,35,22.20
2009,08,27,13,36,22.20
2009,08,27,13,37,22.20
2009,08,27,13,38,22.20
2009,08,27,13,39,22.10
2009,08,27,13,40,22.20
2009,08,27,13,41,22.30
2009,08,27,13,42,22.40
2009,08,27,13,43,22.50
2009,08,27,13,44,22.50
2009,08,27,13,45,22.50
2009,08,27,13,46,22.50
2009,08,27,13,47,22.50
2009,08,27,13,48,22.40
2009,08,27,13,49,22.40
2009,08,27,13,50,22.40
2009,08,27,13,51,22.40
2009,08,27,13,52,22.50
2009,08,27,13,53,22.60
2009,08,27,13,54,22.80
2009,08,27,13,55,22.90
2009,08,27,13,56,22.90
2009,08,27,13,57,22.90
2009,08,27,13,58,22.90
2009,08,27,13,59,22.90
2009,08,27,14,00,22.90
2009,08,27,14,01,22.90
2009,08,27,14,02,23.00
2009,08,27,14,03,23.10
2009,08,27,14,04,23.10
2009,08,27,14,05,23.20
2009,08,27,14,06,23.20
2009,08,27,14,07,23.20
2009,08,27,14,08,23.20
2009,08,27,14,09,23.20
2009,08,27,14,10,23.30
2009,08,27,14,11,23.30
2009,08,27,14,12,23.30
2009,08,27,14,13,23.30
2009,08,27,14,14,23.30
2009,08,27,14,15,23.30
2009,08,27,14,16,23.40
2009,08,27,14,17,23.40
2009,08,27,14,18,23.40
2009,08,27,14,19,23.50
2009,08,27,14,20,23.60
2009,08,27,14,21,23.70
2009,08,27,14,22,23.70
2009,08,27,14,23,23.70
2009,08,27,14,24,23.70
2009,08,27,14,25,23.80
2009,08,27,14,26,23.80
2009,08,27,14,27,23.80
2009,08,27,14,28,23.90
2009,08,27,14,29,23.90
2009,08,27,14,30,23.90
2009,08,27,14,31,23.90
2009,08,27,14,32,23.90
2009,08,27,14,33,23.90
2009,08,27,14,34,23.80
2009,08,27,14,35,23.80
2009,08,27,14,36,23.80
2009,08,27,14,37,23.80
2009,08,27,14,38,23.80
2009,08,27,14,39,23.80
2009,08,27,14,40,23.80
2009,08,27,14,41,23.80
2009,08,27,14,42,23.80
2009,08,27,14,43,23.90
2009,08,27,14,44,23.90
2009,08,27,14,45,24.00
2009,08,27,14,46,24.10
2009,08,27,14,47,24.10
2009,08,27,14,48,24.10
2009,08,27,14,49,24.10
2009,08,27,14,50,24.10
2009,08,27,14,51,24.10
2009,08,27,14,52,24.10
2009,08,27,14,53,23.90
2009,08,27,14,54,23.90
2009,08,27,14,55,24.00
2009,08,27,14,56,24.10
2009,08,27,14,57,24.10
2009,08,27,14,58,24.10
2009,08,27,14,59,24.20
2009,08,27,15,00,24.30
2009,08,27,15,01,24.30
2009,08,27,15,02,24.40
2009,08,27,15,03,24.40
2009,08,27,15,04,24.50
2009,08,27,15,05,24.60
2009,08,27,15,06,24.70
2009,08,27,15,07,24.70
2009,08,27,15,08,24.80
2009,08,27,15,09,24.90
2009,08,27,15,10,25.00
2009,08,27,15,11,25.10
2009,08,27,15,12,25.10
2009,08,27,15,13,25.20
2009,08,27,15,14,25.30
2009,08,27,15,15,25.40
2009,08,27,15,16,25.40
2009,08,27,15,17,25.50
2009,08,27,15,18,25.50
2009,08,27,15,19,25.40
2009,08,27,15,20,25.40
2009,08,27,15,21,25.40
2009,08,27,15,22,25.50
2009,08,27,15,23,25.50
2009,08,27,15,24,25.60
2009,08,27,15,25,25.60
2009,08,27,15,26,25.60
2009,08,27,15,27,25.60
2009,08,27,15,28,25.60
2009,08,27,15,29,25.60
2009,08,27,15,30,25.60
2009,08,27,15,31,25.60
2009,08,27,15,32,25.60
2009,08,27,15,33,25.70
2009,08,27,15,34,25.80
2009,08,27,15,35,25.80
2009,08,27,15,36,25.80
2009,08,27,15,37,25.90
2009,08,27,15,38,25.90
2009,08,27,15,39,25.90
2009,08,27,15,40,25.90
2009,08,27,15,41,26.00
2009,08,27,15,42,26.00
2009,08,27,15,43,26.00
2009,08,27,15,44,26.00
2009,08,27,15,45,26.10
2009,08,27,15,46,26.20
2009,08,27,15,47,26.30
2009,08,27,15,48,26.50
2009,08,27,15,49,26.60
2009,08,27,15,50,26.60
2009,08,27,15,51,26.60
2009,08,27,15,52,26.60
2009,08,27,15,53,26.60
2009,08,27,15,54,26.60
2009,08,27,15,55,26.70
2009,08,27,15,56,26.70
2009,08,27,15,57,26.60
2009,08,27,15,58,26.60
2009,08,27,15,59,26.50
2009,08,27,16,00,26.40
2009,08,27,16,01,26.40
2009,08,27,16,02,26.40
2009,08,27,16,03,26.40
2009,08,27,16,04,26.40
2009,08,27,16,05,26.40
2009,08,27,16,06,26.40
2009,08,27,16,07,26.40
2009,08,27,16,08,26.40
2009,08,27,16,09,26.40
2009,08,27,16,10,26.40
2009,08,27,16,11,26.40
2009,08,27,16,12,26.50
2009,08,27,16,13,26.60
2009,08,27,16,14,26.60
2009,08,27,16,15,26.60
2009,08,27,16,16,26.60
2009,08,27,16,17,26.60
2009,08,27,16,18,26.60
2009,08,27,16,19,26.70
2009,08,27,16,20,26.80
2009,08,27,16,21,26.90
2009,08,27,16,22,27.00
2009,08,27,16,23,27.10
2009,08,27,16,24,27.20
2009,08,27,16,25,27.20
2009,08,27,16,26,27.20
2009,08,27,16,27,27.00
2009,08,27,16,28,26.90
2009,08,27,16,29,26.70
2009,08,27,16,30,26.60
2009,08,27,16,31,26.50
2009,08,27,16,32,26.40
2009,08,27,16,33,26.30
2009,08,27,16,34,26.20
2009,08,27,16,35,26.00
2009,08,27,16,36,25.80
2009,08,27,16,37,25.60
2009,08,27,16,38,25.40
2009,08,27,16,39,25.40
2009,08,27,16,40,25.30
2009,08,27,16,41,25.30
2009,08,27,16,42,25.30
2009,08,27,16,43,25.40
2009,08,27,16,44,25.40
2009,08,27,16,45,25.40
2009,08,27,16,46,25.50
2009,08,27,16,47,25.50
2009,08,27,16,48,25.50
2009,08,27,16,49,25.60
2009,08,27,16,50,25.60
2009,08,27,16,51,25.60
2009,08,27,16,52,25.70
2009,08,27,16,53,25.70
2009,08,27,16,54,25.70
2009,08,27,16,55,25.80
2009,08,27,16,56,25.80
2009,08,27,16,57,25.90
2009,08,27,16,58,25.90
2009,08,27,16,59,26.00
2009,08,27,17,00,26.00
2009,08,27,17,01,26.10
2009,08,27,17,02,26.10
2009,08,27,17,03,26.10
2009,08,27,17,04,26.10
2009,08,27,17,05,26.10
2009,08,27,17,06,26.10
2009,08,27,17,07,26.10
2009,08,27,17,08,26.10
2009,08,27,17,09,26.20
2009,08,27,17,10,26.20
2009,08,27,17,11,26.20
2009,08,27,17,12,26.20
2009,08,27,17,13,26.30
2009,08,27,17,14,26.30
2009,08,27,17,15,26.30
2009,08,27,17,16,26.40
2009,08,27,17,17,26.40
2009,08,27,17,18,26.50
2009,08,27,17,19,26.60